Probability
0 0 0 0 0 0 0 0 0 0 0 2 6 11 14 11 8 9 11 10 10 12 14 15 19 21 20 20 25 28 27 26 24 20 16 14 12 11 9 9 11 13 13 13
0 0 0 0 0 0 0 0 0 0 0 2 5 9 10 8 8 9 10 12 14 16 18 19 19 20 20 22 26 30 31 32 30 25 20 15 12 11 9 9 11 11 11 12
0 0 0 0 0 0 0 0 0 0 0 1 3 6 7 7 8 9 10 12 16 20 24 23 19 17 18 22 26 30 35 37 35 29 22 17 15 12 10 11 12 10 9 10
0 0 0 0 0 0 0 0 0 0 0 1 2 4 6 8 9 10 9 10 14 20 24 24 19 16 16 19 24 30 37 40 36 30 25 20 16 13 11 11 12 11 9 8
0 0 0 0 0 0 0 0 0 0 0 1 1 3 5 7 9 10 10 10 13 17 21 24 22 19 17 18 23 30 38 40 36 31 28 25 19 13 11 10 10 11 10 10
0 0 0 0 0 0 0 0 0 0 0 1 2 4 5 5 7 10 11 12 14 16 19 23 24 23 21 21 25 32 39 40 35 32 30 28 21 16 12 11 11 10 11 11
0 0 0 0 0 0 0 0 0 0 0 1 3 5 5 4 6 10 12 14 16 18 19 22 26 25 24 24 28 35 40 38 34 33 32 28 23 19 17 15 14 12 11 11
0 0 0 0 0 0 0 0 0 0 0 1 4 6 5 4 6 10 13 15 18 20 19 21 24 24 23 24 28 35 37 35 32 32 32 27 23 20 19 18 17 15 13 12
0 0 0 0 0 0 0 0 0 0 0 1 5 7 6 7 9 11 12 15 19 20 18 19 22 21 21 23 27 32 34 32 29 29 29 25 21 18 17 18 17 16 15 14
0 0 0 0 0 0 0 0 0 0 0 1 4 7 9 10 12 11 11 14 18 17 16 19 21 20 18 20 23 28 31 28 25 24 25 23 19 16 17 18 18 17 17 16
0 0 0 0 0 0 0 0 0 0 1 1 3 6 8 9 10 10 9 13 16 15 14 18 21 19 17 16 20 25 28 26 24 24 23 21 20 18 18 19 19 20 20 20
0 0 0 0 0 0 0 0 0 0 1 2 3 6 6 7 8 8 8 14 19 17 16 18 20 19 17 18 20 23 23 23 24 24 22 20 21 21 20 20 21 21 21 21
0 0 0 0 0 0 0 0 0 0 1 2 5 7 7 7 9 8 10 17 23 22 19 20 21 22 22 25 26 23 19 20 23 24 23 23 23 22 22 23 22 20 20 21
0 0 0 0 0 0 1 0 0 0 1 3 6 7 8 9 10 11 14 21 25 24 23 24 27 29 31 33 31 25 20 21 25 27 29 31 30 28 26 25 23 19 17 18
0 0 0 0 0 0 0 0 0 0 1 4 6 8 9 11 12 13 17 22 25 25 27 30 33 35 37 38 35 31 27 28 31 34 36 39 40 37 32 26 22 19 18 18
0 0 0 0 0 0 0 0 0 0 1 2 5 8 11 14 14 15 18 21 23 26 30 34 37 38 39 40 39 36 34 34 36 38 40 43 45 43 34 26 22 20 19 19
0 0 0 0 0 0 0 0 0 0 1 2 5 9 12 15 16 18 20 20 22 28 32 34 37 38 38 39 40 40 38 37 39 41 41 41 41 39 33 26 24 22 19 19
0 0 0 0 0 0 0 0 0 1 3 5 8 11 12 14 17 20 22 23 26 31 32 32 33 34 34 36 41 42 40 40 42 43 42 39 36 34 32 30 29 25 20 17
1 0 0 1 0 0 1 1 0 1 5 9 12 13 14 14 15 18 23 27 28 29 31 30 28 29 33 37 42 43 43 43 44 43 41 38 35 32 32 34 34 29 22 18
1 0 0 0 0 1 2 2 1 3 6 11 14 16 16 17 17 18 23 27 27 28 30 30 28 30 35 40 43 44 45 46 44 41 39 37 35 32 31 35 35 30 23 20
1 1 2 1 1 1 2 2 5 9 12 14 16 17 19 22 24 23 25 28 28 30 31 32 34 37 41 44 46 47 47 47 44 40 37 35 33 30 29 32 32 27 22 19
1 2 4 4 4 6 6 6 10 17 19 17 16 18 21 25 26 27 29 30 30 31 33 36 42 47 48 48 47 48 48 45 40 36 33 30 28 26 26 27 26 23 19 17
1 2 6 8 8 10 11 12 13 14 16 14 13 15 18 21 25 29 32 31 31 33 36 42 49 53 51 48 45 44 44 42 36 31 28 25 24 24 25 23 20 20 18 16
0 3 8 11 10 9 11 12 10 8 8 8 9 10 12 16 23 30 33 33 33 35 38 43 49 51 49 46 43 40 39 38 34 30 25 22 22 24 26 24 20 18 17 17
2 4 8 11 11 10 10 10 8 6 6 7 9 9 11 15 22 30 34 36 36 36 37 40 44 46 45 43 41 38 37 36 33 29 23 19 19 22 25 25 21 15 13 12
3 5 7 10 13 13 12 11 9 7 7 9 11 12 13 16 23 29 35 38 37 36 37 38 40 42 41 40 39 37 36 36 33 28 21 17 16 17 21 23 18 12 7 6
Wind_Speed
11 10 7 4 5 7 7 4 2 1 3 4 4 7 8 9 9 10 9 9 9 8 9 9 8 8 8 7 6 4 3 3 1 1 1 1 1 1 1 2 2 2 1 1
10 9 7 6 7 9 7 6 4 1 1 1 3 2 5 8 8 8 9 9 8 9 9 9 8 8 8 8 6 5 3 3 2 1 0 0 1 1 1 2 2 2 1 1
12 7 6 9 10 8 5 5 5 4 3 3 2 3 4 6 8 9 9 10 11 10 10 9 8 8 8 8 7 5 4 3 2 2 1 1 1 1 2 2 2 1 1 1
10 9 9 9 7 8 5 5 6 7 5 2 1 2 4 7 7 8 8 9 11 10 10 10 9 8 8 8 8 6 5 3 2 2 0 1 1 1 1 1 2 1 1 1
10 9 9 9 6 7 7 7 7 8 6 5 2 1 3 6 7 7 8 8 9 10 10 9 9 8 8 7 8 7 6 4 3 2 1 0 1 1 1 1 2 1 1 1
12 10 10 8 7 7 8 9 7 6 5 5 4 3 2 5 6 7 7 8 8 8 9 9 9 8 7 7 7 7 6 5 4 3 2 1 0 1 1 1 1 0 1 1
13 12 9 8 9 7 8 7 4 5 5 5 3 1 3 2 6 8 8 8 8 8 9 9 9 9 7 7 7 7 6 5 4 4 3 2 1 1 1 1 1 0 1 1
11 10 9 8 9 8 8 8 6 7 6 2 1 1 4 5 5 7 9 9 9 9 8 9 9 8 7 7 7 7 6 4 4 4 2 2 1 1 0 1 1 1 1 1
9 9 10 10 10 10 8 8 9 10 9 5 1 3 5 5 5 7 8 8 9 8 8 9 9 8 8 7 7 7 6 5 4 4 3 3 2 0 0 0 1 1 1 1
10 10 9 7 8 9 9 9 6 5 4 6 2 0 3 5 6 6 7 8 8 9 8 8 8 8 7 7 7 6 6 5 4 4 3 3 2 1 0 0 1 1 1 2
10 11 10 7 8 9 8 8 5 5 5 6 3 1 3 5 5 5 6 8 9 8 8 8 8 8 7 6 6 6 5 4 3 3 3 2 2 2 1 1 1 0 1 1
9 9 8 8 7 8 10 8 7 6 5 6 5 1 3 3 6 5 5 8 8 7 7 7 8 8 7 7 6 4 6 5 4 3 3 3 2 2 1 1 1 1 1 1
6 8 9 8 7 6 8 8 9 9 6 5 5 2 3 3 4 3 5 8 7 6 6 7 7 7 6 6 6 5 4 5 5 4 4 3 2 1 1 1 1 1 1 0
6 10 10 10 6 5 7 10 9 7 6 5 3 4 4 4 4 4 6 8 8 6 6 6 6 6 6 5 5 4 3 4 4 4 4 3 2 2 1 1 1 1 1 1
8 10 11 11 8 7 9 9 9 7 8 8 3 2 4 5 4 5 7 7 6 6 6 6 6 6 6 6 5 4 3 2 3 3 3 3 2 2 1 1 1 0 0 1
8 9 10 10 9 9 10 10 9 7 6 6 3 1 3 6 5 4 5 6 6 5 5 6 6 6 6 6 5 4 3 3 3 2 3 2 3 2 2 1 1 1 1 1
8 8 10 11 9 11 11 9 8 6 4 5 3 1 4 6 6 5 4 6 6 6 6 6 5 4 5 5 4 4 4 4 3 2 2 2 2 2 2 2 2 1 1 1
8 7 7 10 10 13 8 5 5 4 2 3 1 2 3 5 6 5 4 5 5 7 6 5 4 4 4 5 5 4 4 4 3 2 2 2 2 2 2 2 2 2 2 1
8 6 7 8 10 11 7 6 5 3 1 1 2 1 4 5 5 5 3 6 7 7 6 4 4 4 4 4 4 4 4 3 3 2 2 2 1 1 2 2 2 2 1 1
9 6 8 9 11 11 6 4 2 2 2 2 2 3 3 4 2 3 4 5 5 7 5 4 4 4 4 3 4 3 3 3 2 2 2 2 1 1 1 2 2 1 1 2
10 9 10 12 12 8 4 4 4 4 1 4 5 3 2 3 2 3 6 6 4 6 6 5 5 4 4 4 3 2 2 2 1 1 2 2 2 1 1 1 1 1 2 2
9 8 9 10 12 6 2 1 1 4 5 4 3 3 4 4 3 3 6 6 4 6 5 5 5 4 4 4 3 2 2 2 2 1 1 2 1 1 1 2 2 2 2 2
7 6 4 3 2 2 5 5 6 5 5 4 3 3 3 3 2 4 5 5 4 5 4 3 4 4 4 3 2 2 2 2 2 1 1 1 1 1 1 2 3 3 3 3
4 3 3 1 2 2 5 7 5 4 4 3 2 2 1 1 3 5 4 4 4 4 3 2 3 4 3 3 2 2 2 2 1 1 1 1 2 3 2 2 3 3 2 2
5 3 2 2 1 1 4 5 5 4 3 2 2 1 0 0 2 4 3 3 3 3 3 2 2 2 3 3 2 2 2 2 1 1 1 2 2 2 2 2 1 2 1 1
6 4 3 2 0 0 3 3 3 3 3 3 2 2 2 2 3 3 3 3 3 3 2 2 2 2 2 3 2 2 2 2 1 1 2 2 2 2 2 2 2 1 2 3
Wind_Direction
242 243 257 277 292 287 291 279 292 111 162 180 143 154 157 161 160 158 161 156 152 150 148 147 148 143 133 128 123 116 117 110 100 83 102 108 84 53 57 76 79 86 49 44
252 247 260 273 267 268 283 299 300 252 108 241 128 126 150 159 165 157 155 151 154 152 148 150 153 150 145 140 139 134 129 127 139 121 118 121 87 105 94 67 85 76 57 13
246 255 255 265 271 276 279 293 301 286 207 224 154 148 194 169 161 160 165 160 159 159 154 156 159 159 153 148 148 148 148 141 149 145 146 103 91 34 53 75 88 87 68 60
249 249 259 258 262 285 289 299 291 288 282 262 196 212 207 178 169 168 167 165 162 161 158 161 161 163 159 157 153 147 149 148 145 146 117 133 116 90 75 71 87 102 86 28
251 248 251 263 270 290 294 291 289 295 301 295 216 210 209 174 171 170 161 162 157 158 156 154 156 157 157 155 154 150 148 151 152 157 146 134 82 111 91 88 90 94 115 66
258 255 256 266 272 275 278 275 283 290 284 277 254 222 189 173 162 157 157 150 150 147 142 144 144 145 148 147 148 144 143 152 154 157 153 139 62 48 49 47 60 251 130 89
248 248 251 259 262 253 269 281 286 293 266 255 224 172 109 133 140 146 150 143 143 143 144 146 145 150 150 146 141 134 141 151 157 162 167 160 186 193 192 279 236 258 28 76
242 245 239 243 258 266 263 276 280 283 288 283 26 92 119 133 131 135 134 138 139 142 146 149 148 150 152 147 140 137 140 145 154 156 161 150 181 231 231 257 302 7 15 37
248 243 228 224 241 259 275 279 291 293 307 319 336 127 121 121 132 126 124 135 136 141 149 149 149 151 149 144 141 142 141 145 148 153 154 155 166 207 296 294 286 15 10 31
256 269 255 232 231 237 258 280 297 309 317 298 314 174 158 150 143 129 143 145 140 151 152 145 146 149 147 145 140 138 141 146 147 151 167 152 165 182 195 5 29 11 26 27
250 263 264 252 245 257 250 255 267 286 291 292 288 213 133 147 147 155 165 150 145 149 145 144 144 142 137 137 140 145 141 144 152 149 142 125 145 164 180 134 105 51 23 19
245 263 267 258 263 279 276 270 264 266 269 280 289 113 107 149 154 166 161 138 135 137 140 140 142 136 138 142 142 151 154 158 158 146 146 149 155 156 154 128 127 120 63 30
262 260 258 257 255 261 266 274 283 289 281 279 283 138 124 117 115 121 126 120 122 129 130 131 136 138 138 140 142 156 167 160 157 159 159 153 162 153 138 110 110 117 97 61
256 256 259 264 256 246 257 264 270 278 283 283 249 161 149 114 122 137 123 121 133 142 134 131 128 128 132 130 132 135 162 160 159 157 152 152 162 161 152 132 124 101 86 64
246 254 261 268 261 255 261 266 264 258 270 281 283 191 162 138 128 121 119 126 131 133 133 126 127 133 133 133 133 134 146 138 135 141 143 143 142 127 137 141 127 73 6 35
240 264 271 268 267 260 259 257 260 260 265 267 262 262 119 114 107 109 126 131 127 124 117 121 131 130 137 141 144 144 142 130 125 137 138 135 139 146 157 152 156 118 70 56
237 248 266 270 262 261 257 255 255 265 288 289 288 122 123 124 123 135 137 139 138 131 124 126 128 133 140 143 143 147 150 146 151 156 146 150 156 161 169 189 156 148 147 156
244 254 261 267 266 261 272 277 268 259 301 328 346 137 122 121 113 119 136 138 127 119 118 119 131 135 136 142 149 149 152 148 155 151 154 170 179 173 179 179 174 174 175 185
235 238 255 264 261 256 253 257 253 236 271 304 270 152 114 119 123 113 124 119 121 120 121 128 135 134 131 141 141 144 155 148 153 157 163 163 174 186 200 193 190 194 184 188
234 225 243 253 262 262 256 262 275 253 221 57 53 58 86 106 125 117 118 102 111 118 119 117 114 115 117 119 126 140 152 156 167 167 161 154 158 183 209 195 191 195 195 222
224 228 236 250 256 259 278 273 250 248 101 60 53 46 70 79 77 118 118 104 102 107 116 111 106 108 110 110 119 141 134 125 114 132 142 141 161 198 181 156 159 189 213 232
235 233 235 248 255 251 359 311 20 70 67 62 62 53 60 63 83 100 107 111 121 110 109 110 103 103 102 105 115 120 104 93 82 87 115 128 160 230 152 141 175 209 219 230
243 249 237 236 257 66 72 76 82 83 72 50 39 57 66 83 113 113 114 118 116 110 109 112 114 109 104 111 130 130 111 102 94 95 117 162 191 211 170 191 199 211 215 229
251 259 254 216 150 108 81 78 69 66 66 52 50 52 72 137 138 128 127 117 119 113 124 133 125 127 127 133 133 122 118 116 125 157 188 198 203 209 202 215 214 222 225 233
299 300 291 266 267 119 107 86 72 53 53 45 74 65 36 95 111 119 114 112 117 124 130 122 125 131 130 125 120 118 122 133 162 195 217 221 221 217 208 204 237 246 248 242
288 288 264 247 137 202 85 75 101 89 60 30 37 53 55 67 104 115 114 107 103 105 102 104 109 119 127 131 127 121 128 139 172 225 238 241 238 226 226 209 209 145 152 137